Вернуться в каталог

STARLINK-31573

АктивенСвязьVLEO
NORAD 59334·PAYLOAD·🇺🇸 United States

Запущен Mar 25, 2024 с Cape Canaveral Space Force Station

Loading…

Ближайшие Пролёты (ближайшие 24 часа)

TLE

СвежийSource: CelesTrak SupGP

Эпоха: Sep 14, 2026, 14:25 UTC

1 59334C 24057Q   26257.60118056 -.00008555  00000+0 -30991-3 0  2577
2 59334  43.0004 199.7753 0001427 263.6404 163.9653 15.27577035    13

Отслеживайте STARLINK-31573 в реальном времени с AllMySat

Download on the App Store